Change the Weather History Date:

Thursday, June 13, 2013

  Actual Average Record
Temperature  
Mean Temperature 58 °F -  
Max Temperature 69 °F 69 °F 87 °F (2005)
Min Temperature 46 °F 49 °F 37 °F (2000)
Degree Days  
Heating Degree Days 8    
Growing Degree Days 8 (Base 50)    
Moisture  
Dew Point 49 °F    
Average Humidity 72    
Maximum Humidity 94    
Minimum Humidity 40    
Precipitation  
Precipitation 0.00 in - - ()
Sea Level Pressure  
Sea Level Pressure 29.77 in    
Wind  
Wind Speed 4 mph (ESE)    
Max Wind Speed 12 mph    
Max Gust Speed -    
Visibility 10 miles    
Events      
Averages and records for this station are not official NWS values.
T = Trace of Precipitation, MM = Missing Value Source: NWS Daily Summary

Daily Weather History Graph

Daily Weather History Graph

Search for Another Location

Airport or City:

Trip Planner

Search our weather history database for the weather conditions in past years. The results will help you decide how hot, cold, wet, or windy it might be!

Date:

Astronomy

Jun. 13, 2013 Rise Set
Actual Time 4:57 AM EDT 8:25 PM EDT
Civil Twilight 4:21 AM EDT 9:01 PM EDT
Nautical Twilight 3:33 AM EDT 9:49 PM EDT
Astronomical Twilight 2:33 AM EDT 10:49 PM EDT
Moon 9:39 AM EDT (6/13) 11:20 PM EDT (6/13)
Length of Visible Light 16h 40m
Length of Day
15h 27m
Waxing Crescent, 21% of the Moon is Illuminated
Jun 13
Waxing Crescent
Jun 16
First Quarter
Jun 23
Full
Jun 30
Last Quarter
Jul 8
New

Hourly Weather History & Observations

Time (EDT) Temp. Dew Point Humidity Pressure Visibility Wind Dir Wind Speed Gust Speed Precip Events Conditions
12:15 AM 57.2 °F 50.0 °F 77% 29.78 in 10.0 mi NW 5.8 mph - N/A   Overcast
12:35 AM 55.4 °F 50.0 °F 82% 29.78 in 10.0 mi NW 4.6 mph - N/A   Overcast
12:55 AM 55.4 °F 50.0 °F 82% 29.77 in 10.0 mi NW 4.6 mph - N/A   Mostly Cloudy
1:15 AM 55.4 °F 50.0 °F 82% 29.77 in 10.0 mi NW 4.6 mph - N/A   Mostly Cloudy
1:35 AM 55.4 °F 50.0 °F 82% 29.77 in 10.0 mi NW 3.5 mph - N/A   Mostly Cloudy
1:55 AM 55.4 °F 50.0 °F 82% 29.77 in 10.0 mi Calm Calm - N/A   Partly Cloudy
2:15 AM 53.6 °F 48.2 °F 82% 29.77 in 10.0 mi Calm Calm - N/A   Mostly Cloudy
2:35 AM 53.6 °F 48.2 °F 82% 29.77 in 10.0 mi Calm Calm - N/A   Overcast
2:55 AM 51.8 °F 48.2 °F 88% 29.77 in 10.0 mi Calm Calm - N/A   Mostly Cloudy
3:15 AM 51.8 °F 48.2 °F 88% 29.77 in 9.0 mi Calm Calm - N/A   Clear
3:35 AM 50.0 °F 46.4 °F 87% 29.77 in 7.0 mi Calm Calm - N/A   Clear
3:55 AM 50.0 °F 48.2 °F 94% 29.77 in 10.0 mi Calm Calm - N/A   Clear
4:15 AM 48.2 °F 46.4 °F 93% 29.78 in 0.8 mi Calm Calm - N/A   Mostly Cloudy
4:35 AM 50.0 °F 48.2 °F 94% 29.78 in 9.0 mi Calm Calm - N/A   Clear
4:55 AM 48.2 °F 46.4 °F 93% 29.78 in 5.0 mi Calm Calm - N/A   Clear
5:15 AM 48.2 °F 46.4 °F 93% 29.79 in 8.0 mi Calm Calm - N/A   Clear
5:35 AM 46.4 °F 44.6 °F 93% 29.80 in 3.0 mi Calm Calm - N/A   Clear
5:55 AM 50.0 °F 48.2 °F 94% 29.79 in 9.0 mi NNE 3.5 mph - N/A   Clear
6:15 AM 50.0 °F 48.2 °F 94% 29.80 in 9.0 mi Calm Calm - N/A   Clear
6:35 AM 51.8 °F 48.2 °F 88% 29.80 in 10.0 mi Calm Calm - N/A   Clear
6:55 AM 53.6 °F 50.0 °F 88% 29.80 in 10.0 mi Calm Calm - N/A   Clear
7:15 AM 55.4 °F 51.8 °F 88% 29.80 in 10.0 mi Calm Calm - N/A   Clear
7:35 AM 57.2 °F 51.8 °F 82% 29.79 in 10.0 mi Calm Calm - N/A   Clear
7:55 AM 60.8 °F 50.0 °F 68% 29.80 in 10.0 mi Calm Calm - N/A   Clear
8:15 AM 62.6 °F 50.0 °F 63% 29.80 in 10.0 mi Calm Calm - N/A   Clear
8:35 AM 62.6 °F 51.8 °F 68% 29.80 in 10.0 mi Calm Calm - N/A   Clear
8:55 AM 62.6 °F 53.6 °F 72% 29.80 in 10.0 mi NNE 3.5 mph - N/A   Partly Cloudy
9:15 AM 64.4 °F 48.2 °F 56% 29.80 in 10.0 mi NE 6.9 mph - N/A   Partly Cloudy
9:35 AM 64.4 °F 50.0 °F 59% 29.79 in 10.0 mi NNE 9.2 mph - N/A   Partly Cloudy
9:55 AM 64.4 °F 50.0 °F 59% 29.79 in 10.0 mi NNE 11.5 mph - N/A   Scattered Clouds
10:15 AM 64.4 °F 48.2 °F 56% 29.79 in 10.0 mi North 10.4 mph - N/A   Clear
10:35 AM 66.2 °F 50.0 °F 56% 29.79 in 10.0 mi East 4.6 mph - N/A   Clear
10:55 AM 66.2 °F 51.8 °F 60% 29.79 in 10.0 mi ENE 6.9 mph - N/A   Clear
11:15 AM 66.2 °F 50.0 °F 56% 29.79 in 10.0 mi ENE 8.1 mph - N/A   Clear
11:35 AM 68.0 °F 50.0 °F 52% 29.80 in 10.0 mi NNE 3.5 mph - N/A   Clear
11:55 AM 68.0 °F 51.8 °F 56% 29.78 in 10.0 mi NNE 5.8 mph - N/A   Clear
12:15 PM 69.8 °F 51.8 °F 53% 29.77 in 10.0 mi NE 3.5 mph - N/A   Scattered Clouds
12:35 PM 69.8 °F 46.4 °F 43% 29.77 in 10.0 mi ENE 6.9 mph - N/A   Mostly Cloudy
12:55 PM 69.8 °F 46.4 °F 43% 29.77 in 10.0 mi North 6.9 mph - N/A   Mostly Cloudy
1:15 PM 69.8 °F 44.6 °F 40% 29.77 in 10.0 mi ESE 6.9 mph - N/A   Mostly Cloudy
1:35 PM 69.8 °F 44.6 °F 40% 29.76 in 10.0 mi East 9.2 mph - N/A   Scattered Clouds
1:55 PM 69.8 °F 44.6 °F 40% 29.76 in 8.0 mi East 6.9 mph - N/A   Clear
2:15 PM 68.0 °F 42.8 °F 40% 29.76 in 10.0 mi East 4.6 mph - N/A   Clear
2:35 PM 68.0 °F 42.8 °F 40% 29.75 in 10.0 mi East 5.8 mph - N/A   Clear
2:55 PM 68.0 °F 44.6 °F 43% 29.74 in 10.0 mi ESE 4.6 mph - N/A   Clear
3:16 PM 66.2 °F 46.4 °F 49% 29.74 in 10.0 mi East 4.6 mph - N/A   Clear
3:35 PM 66.2 °F 46.4 °F 49% 29.74 in 10.0 mi East 4.6 mph - N/A   Clear
3:55 PM 66.2 °F 51.8 °F 60% 29.73 in 10.0 mi SE 6.9 mph - N/A   Clear
4:15 PM 64.4 °F 53.6 °F 68% 29.73 in 10.0 mi South 8.1 mph - N/A   Clear
4:35 PM 64.4 °F 51.8 °F 64% 29.73 in 10.0 mi SSE 8.1 mph - N/A   Clear
4:55 PM 62.6 °F 51.8 °F 68% 29.74 in 10.0 mi South 10.4 mph - N/A   Clear
5:15 PM 62.6 °F 51.8 °F 68% 29.74 in 10.0 mi South 8.1 mph - N/A   Scattered Clouds
5:35 PM 62.6 °F 50.0 °F 63% 29.74 in 10.0 mi South 9.2 mph - N/A   Mostly Cloudy
5:55 PM 62.6 °F 48.2 °F 59% 29.75 in 10.0 mi SSE 8.1 mph - N/A   Scattered Clouds
6:15 PM 60.8 °F 50.0 °F 68% 29.74 in 10.0 mi South 9.2 mph - N/A   Clear
6:35 PM 60.8 °F 51.8 °F 72% 29.74 in 10.0 mi SSE 8.1 mph - N/A   Partly Cloudy
6:55 PM 60.8 °F 50.0 °F 68% 29.75 in 10.0 mi South 6.9 mph - N/A   Clear
7:15 PM 60.8 °F 51.8 °F 72% 29.75 in 10.0 mi SSE 5.8 mph - N/A   Clear
7:35 PM 59.0 °F 51.8 °F 77% 29.75 in 10.0 mi SSE 5.8 mph - N/A   Clear
7:55 PM 59.0 °F 51.8 °F 77% 29.76 in 10.0 mi SSE 4.6 mph - N/A   Clear
8:15 PM 57.2 °F 51.8 °F 82% 29.76 in 10.0 mi SSE 4.6 mph - N/A   Clear
8:36 PM 57.2 °F 51.8 °F 82% 29.76 in 10.0 mi SSE 4.6 mph - N/A   Scattered Clouds
8:55 PM 57.2 °F 51.8 °F 82% 29.77 in 10.0 mi SSE 4.6 mph - N/A   Mostly Cloudy
9:15 PM 57.2 °F 51.8 °F 82% 29.77 in 10.0 mi SSE 4.6 mph - N/A   Overcast
9:35 PM 55.4 °F 51.8 °F 88% 29.76 in 10.0 mi SE 6.9 mph - N/A   Mostly Cloudy
9:55 PM 55.4 °F 51.8 °F 88% 29.76 in 10.0 mi SE 4.6 mph - N/A   Scattered Clouds
10:15 PM 55.4 °F 51.8 °F 88% 29.76 in 10.0 mi SE 4.6 mph - N/A   Mostly Cloudy
10:35 PM 55.4 °F 51.8 °F 88% 29.76 in 10.0 mi SSE 4.6 mph - N/A   Mostly Cloudy
10:55 PM 55.4 °F 51.8 °F 88% 29.75 in 10.0 mi SSE 3.5 mph - N/A   Overcast
11:15 PM 53.6 °F 51.8 °F 94% 29.75 in 10.0 mi SE 4.6 mph - N/A   Overcast
11:35 PM 55.4 °F 51.8 °F 88% 29.75 in 10.0 mi Calm Calm - N/A   Overcast
11:55 PM 55.4 °F 51.8 °F 88% 29.75 in 9.0 mi Calm Calm - N/A   Overcast